Flag for Switzerland Weather past 2 weeks in Muttenz, Basel-Land, Switzerland

Now
39 °F

Light rain. Mostly cloudy.


Feels Like: 34 °F
Forecast: 31 / 39 °F
Wind: 7 mph from South

Location: Bale-Mulhouse

Current Time: Jan 29, 2015 at 7:43:33 PM

Latest Report: Jan 29, 2015 at 7:00 PM


Visibility: N/A

Pressure: 29.06 "Hg

Humidity: 93%

Dew point: 37 °F

Location of MuttenzLocation

Historic Weather in Muttenz — Graph

°F

Muttenz temperature yesterday

Maximum temperature yesterday: 45 °F (at 11:12 PM)
Minimum temperature yesterday: 30 °F (at 2:00 AM)
Average temperature yesterday: 37 °F

Past Weeks' High & Low Weather Summary

 TemperatureHumidityPressure
High48 °F (Jan 15, 2:00 PM)100% (Jan 16, 10:30 AM)30.45 "Hg (Jan 16, 10:30 AM)
Low27 °F (Jan 18, 4:30 AM)66% (Jan 15, 2:00 PM)29.06 "Hg (Jan 29, 7:00 PM)
Average36 °F89%29.99 "Hg
* Reported Jan 14 7:00 PM — Jan 29 7:00 PM, Muttenz, Weather by CustomWeather, © 2014

Note: Actual official high and low records may vary slightly from our data, if they occured in-between our weather recording intervals... More about our weather records

Advertising

Muttenz weather history for previous 24 hours

 ConditionsComfort  
Time TempWeatherWind HumidityBarometerVisibility
7:00 PM
Jan 29
39 °FLight rain. Mostly cloudy.7 mph93%29.06 "HgN/A
6:30 PM39 °FLight rain. Mostly cloudy.7 mph93%29.09 "Hg5 mi
6:00 PM39 °FLight rain. Mostly cloudy.8 mph93%29.12 "HgN/A
5:30 PM39 °FLight rain. Overcast.6 mph93%29.15 "Hg5 mi
5:00 PM39 °FLight rain. Mostly cloudy.5 mph93%29.18 "HgN/A
4:30 PM41 °FLight rain. Cloudy.3 mph87%29.21 "HgN/A
4:00 PM41 °FLight rain. Cloudy.3 mph87%29.24 "HgN/A
3:30 PM41 °FCloudy.3 mph87%29.24 "HgN/A
3:00 PM41 °FLight rain. Cloudy.5 mph87%29.27 "HgN/A
2:30 PM41 °FLight rain. Partly sunny.2 mph81%29.30 "HgN/A
2:00 PM41 °FLight rain. Partly sunny.7 mph81%29.36 "HgN/A
1:00 PM41 °FLight rain. Partly sunny.14 mph81%29.42 "HgN/A
12:30 PM41 °FBroken clouds.5 mph81%29.42 "HgN/A
12:00 PM41 °FPartly sunny.2 mph81%29.47 "HgN/A
11:30 AM39 °FPartly sunny.5 mph81%29.47 "HgN/A
11:00 AM39 °FPartly sunny.5 mph81%29.50 "HgN/A
10:30 AM37 °FPartly sunny.3 mph87%29.53 "HgN/A
10:00 AM37 °FBroken clouds.5 mph87%29.53 "HgN/A
9:30 AM37 °FBroken clouds.5 mph87%29.56 "HgN/A
9:00 AM36 °FBroken clouds.6 mph87%29.56 "HgN/A
8:00 AM34 °FBroken clouds.3 mph93%29.59 "HgN/A
7:30 AM34 °FPassing clouds.3 mph93%29.62 "HgN/A
7:00 AM36 °FPassing clouds.No wind87%29.62 "HgN/A
6:30 AM36 °FPartly cloudy.6 mph87%29.62 "HgN/A
6:00 AM36 °FMostly cloudy.8 mph87%29.62 "HgN/A
5:30 AM36 °FPassing clouds.6 mph87%29.65 "HgN/A
5:00 AM36 °FLight rain. Passing clouds.8 mph87%29.65 "HgN/A
4:30 AM36 °FLight rain. Passing clouds.10 mph93%29.65 "HgN/A
4:00 AM34 °FLight snow. Partly cloudy.10 mph93%29.65 "HgN/A
3:30 AM34 °FHeavy snow. Partly cloudy.9 mph93%29.65 "Hg6 mi
3:00 AM36 °FLight rain. Mostly cloudy.13 mph93%29.68 "HgN/A
2:30 AM37 °FLight rain. Mostly cloudy.12 mph87%29.65 "HgN/A
2:00 AM39 °FLight rain. Overcast.15 mph87%29.65 "HgN/A
1:30 AM39 °FLight rain. Mostly cloudy.16 mph87%29.65 "HgN/A
1:00 AM43 °FRain. Mostly cloudy.13 mph87%29.62 "HgN/A
12:30 AM45 °FLight rain. Mostly cloudy.13 mph81%29.62 "HgN/A
12:00 AM45 °FMostly cloudy.15 mph76%29.62 "HgN/A
11:30 PM
Jan 28
45 °FMostly cloudy.15 mph81%29.65 "HgN/A
11:12 PM45 °FOvercast.10 mph81%29.65 "HgN/A
10:30 PM41 °FOvercast.3 mph81%29.68 "HgN/A
10:00 PM41 °FOvercast.7 mph76%29.68 "HgN/A
9:30 PM39 °FLight rain. Overcast.6 mph81%29.71 "HgN/A
9:00 PM39 °FOvercast.6 mph75%29.74 "HgN/A
8:00 PM39 °FPassing clouds.5 mph75%29.77 "HgN/A
7:30 PM39 °FPassing clouds.6 mph75%29.80 "HgN/A
7:00 PM41 °FPassing clouds.3 mph70%29.83 "HgN/A
Weather by CustomWeather, © 2014

See weather overviewHow to use our weather pages